Flight Track Log - Related Links

Times and Time Zones

All times are in EDT time to prevent confusion due to time zone crossing. See the ASQ5740 flight status page for this flight to view local times or setup timezone preferences in your user account.

Time Position Orientation Groundspeed Altitude Reporting Facility
EDT Latitude Longitude Course Direction KTS MPH feet Rate Location/Type
Sat 07:10:34 PM 32.8631 -80.0461 309° West 159 183 1,300  Level Jacksonville Center
Sat 07:11:34 PM 32.8767 -79.9961 72° East 155 178 3,300 1,800 Climbing Jacksonville Center
Sat 07:12:00 PM 33.1228 -80.1367 335° Northwest  Level FlightAware Approximate
Sat 07:12:34 PM 32.9361 -79.9497 33° Northeast 159 183 4,900  Level Jacksonville Center
Sat 07:13:00 PM 33.2005 -80.1799 335° Northwest  Level FlightAware Approximate
Sat 07:13:34 PM 33.0078 -79.9869 336° Northwest 187 215 7,600  Level Jacksonville Center
Sat 07:14:00 PM 33.2784 -80.2225 337° Northwest  Level FlightAware Approximate
Sat 07:14:34 PM 33.0758 -80.0369 328° Northwest 233 268 10,200  Level Jacksonville Center
Sat 07:15:00 PM 33.3496 -80.2744 309° West  Level FlightAware Approximate
Sat 07:15:34 PM 33.1436 -80.0794 332° Northwest 279 321 11,900  Level Jacksonville Center
Sat 07:16:33 PM 33.2217 -80.1267 333° Northwest 304 350 13,700 1,700 Climbing Jacksonville Center
Sat 07:17:34 PM 33.3042 -80.1761 333° Northwest 316 364 15,300 1,686 Climbing Jacksonville Center
Sat 07:18:34 PM 33.3867 -80.2258 333° Northwest 326 375 17,100 1,550 Climbing Jacksonville Center
Sat 07:19:34 PM 33.4733 -80.2781 333° Northwest 331 381 18,400 1,350 Climbing Jacksonville Center
Sat 07:20:34 PM 33.5619 -80.3303 334° Northwest 336 387 19,800 1,300 Climbing Jacksonville Center
Sat 07:21:34 PM 33.6508 -80.3850 333° Northwest 347 399 21,000 1,200 Climbing Jacksonville Center
Sat 07:22:34 PM 33.7417 -80.4400 333° Northwest 353 406 22,200 1,050 Climbing Jacksonville Center
Sat 07:23:34 PM 33.8344 -80.4972 333° Northwest 359 413 23,100 1,100 Climbing Jacksonville Center
Sat 07:24:34 PM 33.9317 -80.5572 333° Northwest 376 433 24,400 1,200 Climbing Jacksonville Center
Sat 07:25:34 PM 34.0244 -80.6125 334° Northwest 376 433 25,500 1,150 Climbing Jacksonville Center
Sat 07:26:34 PM 34.1172 -80.6678 334° Northwest 370 426 26,700 506 Climbing Jacksonville Center
Sat 07:28:32 PM 34.3042 -80.7847 333° Northwest 371 427 27,000 101 Climbing Atlanta Center
Sat 07:29:32 PM 34.4000 -80.8542 329° Northwest 379 436 27,000  Level Atlanta Center
Sat 07:30:32 PM 34.4825 -80.8964 337° Northwest 379 436 27,000  Level Atlanta Center
Sat 07:31:32 PM 34.5758 -80.9586 331° Northwest 377 434 27,000  Level Atlanta Center
Sat 07:32:32 PM 34.6669 -81.0133 334° Northwest 370 426 27,000 500 Level Atlanta Center
Sat 07:33:32 PM 34.7578 -81.0631 336° Northwest 365 420 28,000 500 Climbing Atlanta Center
Sat 07:34:32 PM 34.8533 -81.1281 331° Northwest 375 432 28,000  Level Atlanta Center
Sat 07:35:32 PM 34.9464 -81.1856 333° Northwest 375 432 28,000  Level Atlanta Center
Sat 07:36:32 PM 35.0500 -81.2453 335° Northwest 375 432 28,000  Level Atlanta Center
Sat 07:37:32 PM 35.1411 -81.3058 331° Northwest 375 432 28,000  Level Atlanta Center
Sat 07:38:32 PM 35.2342 -81.3639 333° Northwest 375 432 28,000  Level Atlanta Center
Sat 07:39:32 PM 35.3231 -81.4219 332° Northwest 368 423 28,000  Level Atlanta Center
Sat 07:40:32 PM 35.4161 -81.4803 333° Northwest 368 423 28,000  Level Atlanta Center
Sat 07:41:32 PM 35.5072 -81.5386 332° Northwest 373 429 28,000  Level Atlanta Center
Sat 07:42:32 PM 35.5894 -81.5922 332° Northwest 373 429 28,000  Level Atlanta Center
Sat 07:43:32 PM 35.6764 -81.6536 330° Northwest 368 423 28,000  Level Atlanta Center
Sat 07:44:32 PM 35.7589 -81.7228 326° Northwest 368 423 28,000  Level Atlanta Center
Sat 07:47:00 PM 35.9639 -81.8953 326° Northwest 361 415 28,000  Level Indianapolis Center
Sat 07:48:01 PM 36.0461 -81.9664 325° Northwest 360 414 28,000  Level Indianapolis Center
Sat 07:49:02 PM 36.1261 -82.0364 325° Northwest 353 406 28,000  Level Indianapolis Center
Sat 07:50:03 PM 36.2092 -82.1081 325° Northwest 361 415 28,000  Level Indianapolis Center
Sat 07:51:04 PM 36.2903 -82.1778 325° Northwest 356 410 28,000  Level Indianapolis Center
Sat 07:52:05 PM 36.3714 -82.2483 325° Northwest 355 409 28,000  Level Indianapolis Center
Sat 07:53:06 PM 36.4653 -82.3303 325° Northwest 354 407 28,000  Level Indianapolis Center
Sat 07:54:07 PM 36.5453 -82.4000 325° Northwest 351 404 28,000  Level Indianapolis Center
Sat 07:55:08 PM 36.6264 -82.4706 325° Northwest 354 407 28,000  Level Indianapolis Center
Sat 07:56:09 PM 36.7053 -82.5408 324° Northwest 350 403 28,000  Level Indianapolis Center
Sat 07:57:10 PM 36.7856 -82.6114 325° Northwest 352 405 28,000  Level Indianapolis Center
Sat 07:58:11 PM 36.8647 -82.6803 325° Northwest 350 403 28,000  Level Indianapolis Center
Sat 07:59:12 PM 36.9444 -82.7500 325° Northwest 353 406 28,000  Level Indianapolis Center
Sat 08:00:14 PM 37.0239 -82.8214 324° Northwest 358 412 28,000  Level Indianapolis Center
Sat 08:01:15 PM 37.1192 -82.9075 324° Northwest 362 417 28,000  Level Indianapolis Center
Sat 08:02:16 PM 37.2025 -82.9825 324° Northwest 368 423 28,000  Level Indianapolis Center
Sat 08:03:18 PM 37.2867 -83.0583 324° Northwest 373 429 28,000  Level Indianapolis Center
Sat 08:04:19 PM 37.3717 -83.1350 324° Northwest 375 432 28,000  Level Indianapolis Center
Sat 08:05:20 PM 37.4581 -83.2133 324° Northwest 379 436 28,000  Level Indianapolis Center
Sat 08:06:21 PM 37.5461 -83.2875 326° Northwest 381 438 28,000  Level Indianapolis Center
Sat 08:07:22 PM 37.6375 -83.3572 329° Northwest 383 441 28,000  Level Indianapolis Center
Sat 08:08:23 PM 37.7286 -83.4275 329° Northwest 383 441 28,000  Level Indianapolis Center
Sat 08:09:24 PM 37.8197 -83.4983 328° Northwest 383 441 28,000  Level Indianapolis Center
Sat 08:10:25 PM 37.9108 -83.5683 329° Northwest 383 441 28,000  Level Indianapolis Center
Sat 08:11:26 PM 38.0178 -83.6511 329° Northwest 384 442 28,000  Level Indianapolis Center
Sat 08:12:27 PM 38.1075 -83.7239 327° Northwest 383 441 28,000  Level Indianapolis Center
Sat 08:13:28 PM 38.1983 -83.7950 328° Northwest 383 441 28,000  Level Indianapolis Center
Sat 08:14:29 PM 38.2889 -83.8650 329° Northwest 382 440 28,000  Level Indianapolis Center
Sat 08:15:30 PM 38.3794 -83.9367 328° Northwest 382 440 28,000  Level Indianapolis Center
Sat 08:16:31 PM 38.4692 -84.0089 328° Northwest 381 438 28,000  Level Indianapolis Center
Sat 08:17:32 PM 38.5594 -84.0808 328° Northwest 382 440 28,000  Level Indianapolis Center
Sat 08:18:33 PM 38.6483 -84.1519 328° Northwest 380 437 28,000  Level Indianapolis Center
Sat 08:19:34 PM 38.7403 -84.2261 328° Northwest 384 442 28,000  Level Indianapolis Center
Sat 08:20:36 PM 38.8294 -84.2992 327° Northwest 378 435 28,000  Level Indianapolis Center
Sat 08:21:37 PM 38.9172 -84.3689 328° Northwest 368 423 28,000  Level Indianapolis Center
Sat 08:22:38 PM 39.0044 -84.4400 328° Northwest 366 421 28,000  Level Indianapolis Center
Sat 08:23:39 PM 39.0914 -84.5111 328° Northwest 364 419 28,000  Level Indianapolis Center
Sat 08:24:40 PM 39.1792 -84.5825 328° Northwest 370 426 28,000  Level Indianapolis Center
Sat 08:25:41 PM 39.2661 -84.6539 328° Northwest 367 422 28,000  Level Indianapolis Center
Sat 08:26:42 PM 39.3525 -84.7236 328° Northwest 364 419 28,000  Level Indianapolis Center
Sat 08:27:43 PM 39.4392 -84.7950 328° Northwest 366 421 28,000  Level Indianapolis Center
Sat 08:28:44 PM 39.5256 -84.8661 328° Northwest 365 420 28,000  Level Indianapolis Center
Sat 08:29:45 PM 39.6186 -84.9428 328° Northwest 364 419 28,000  Level Indianapolis Center
Sat 08:30:46 PM 39.7047 -85.0136 328° Northwest 367 422 28,000 -49 Level Indianapolis Center
Sat 08:31:47 PM 39.7886 -85.0844 327° Northwest 364 419 27,900 -295 Descending Indianapolis Center
Sat 08:32:48 PM 39.8764 -85.1567 328° Northwest 373 429 27,400 -492 Descending Indianapolis Center
Sat 08:33:49 PM 39.9664 -85.2319 327° Northwest 384 442 26,900 -492 Descending Indianapolis Center
Sat 08:34:50 PM 40.0575 -85.3089 327° Northwest 390 449 26,400 -439 Descending Indianapolis Center
Sat 08:35:52 PM 40.1667 -85.4003 327° Northwest 392 451 26,000 -195 Descending Indianapolis Center
Sat 08:36:53 PM 40.2444 -85.4950 317° Northwest 385 443 26,000  Level Indianapolis Center
Sat 08:37:54 PM 40.3172 -85.5867 316° Northwest 369 425 26,000 -108 Level Indianapolis Center
Sat 08:38:44 PM 40.3739 -85.6583 316° Northwest 366 421 25,800 -375 Descending Chicago Center
Sat 08:39:46 PM 40.4467 -85.7508 316° Northwest 366 421 25,300 -488 Descending Chicago Center
Sat 08:40:47 PM 40.5206 -85.8456 316° Northwest 372 428 24,800 -537 Descending Chicago Center
Sat 08:41:49 PM 40.6092 -85.9628 315° West 377 434 24,200 -537 Descending Chicago Center
Sat 08:42:50 PM 40.6836 -86.0589 316° Northwest 377 434 23,700 -443 Descending Chicago Center
Sat 08:43:51 PM 40.7456 -86.1397 315° West 371 427 23,300 -488 Descending Chicago Center
Sat 08:44:53 PM 40.8353 -86.2556 316° Northwest 375 432 22,700 -537 Descending Chicago Center
Sat 08:45:54 PM 40.9094 -86.3528 315° West 376 433 22,200 -488 Descending Chicago Center
Sat 08:46:56 PM 40.9861 -86.4533 315° West 384 442 21,700 -537 Descending Chicago Center
Sat 08:47:57 PM 41.0639 -86.5569 315° West 392 451 21,100 -541 Descending Chicago Center
Sat 08:48:58 PM 41.1444 -86.6622 315° West 401 461 20,600 -780 Descending Chicago Center
Sat 08:50:00 PM 41.2297 -86.7736 316° Northwest 403 464 19,500 -1,707 Descending Chicago Center
Sat 08:51:01 PM 41.3061 -86.8781 314° West 398 458 17,100 -2,341 Descending Chicago Center
Sat 08:52:03 PM 41.3808 -86.9781 315° West 388 447 14,700 -2,146 Descending Chicago Center
Sat 08:53:04 PM 41.4533 -87.0753 315° West 375 432 12,700 -1,770 Descending Chicago Center
Sat 08:54:05 PM 41.5272 -87.1758 314° West 381 438 11,100 -780 Descending Chicago Center
Sat 08:55:07 PM 41.6019 -87.2964 310° West 358 412 11,100 -49 Level Chicago Center
Sat 08:56:08 PM 41.6636 -87.3953 310° West 352 405 11,000 -49 Descending Chicago Center
Sat 08:57:10 PM 41.7253 -87.4919 311° West 348 400 11,000  Level Chicago Center
Sat 08:58:11 PM 41.7864 -87.5911 310° West 349 402 11,000 -443 Level Chicago Center
Sat 08:59:12 PM 41.8461 -87.6861 310° West 338 389 10,100 -1,122 Descending Chicago Center
Sat 09:00:14 PM 41.8756 -87.7794 293° West 287 330 8,700 -1,512 Descending Chicago Center
Sat 09:01:15 PM 41.8978 -87.8925 285° West 265 305 7,000 -1,159 Descending Chicago Center
Sat 09:01:42 PM 41.9000 -87.9333 274° West 269 310 7,000 -519 Level Chicago TRACON
Sat 09:02:36 PM 41.9000 -88.0167 270° West 224 258 6,300 -1,350 Descending Chicago TRACON
Sat 09:03:42 PM 41.9000 -88.1000 270° West 230 265 4,300 -1,750 Descending Chicago TRACON
Sat 09:04:36 PM 41.9500 -88.1000 360° North 221 254 2,800 -1,667 Descending Chicago TRACON

Login

Don't have an account? Register now (free) for customized features, flight alerts, and more!